Theta_e
310 310 310 309 310 310 312 313 314 315 319 322 322 323 324 325 324 324 326 326 325 325 324 324 323 323 323 324 324 326 326 326 326 327 327 328 328 328 327 327 327 326 325 326 325 323 323 323 321 319 318 317 316 316 316 315 315 314 314 312 312 312 311 311 309 308 308 308 309 308 310 311 311 311 313 313 313 314 313 313 312 312 312 312 312
308 310 310 309 310 310 309 310 311 313 314 317 320 322 324 324 324 325 326 325 325 326 325 325 325 325 324 324 325 326 325 324 325 326 327 328 327 327 327 327 327 327 325 326 326 326 324 324 323 322 320 319 318 317 317 314 314 313 313 312 312 312 312 311 310 310 308 308 307 305 308 310 311 312 312 313 314 314 313 313 312 312 312 312 312
309 309 310 311 311 311 310 310 310 313 315 315 318 320 321 323 324 324 325 325 325 326 325 325 326 326 325 325 325 325 326 326 326 326 326 326 327 327 327 327 327 327 327 325 326 326 326 325 324 324 322 320 318 318 317 316 316 314 313 313 311 310 311 311 310 312 310 307 304 304 304 304 307 307 312 313 315 315 314 312 313 312 313 313 312
308 309 310 311 311 311 309 310 311 311 311 311 314 317 319 321 323 324 324 324 325 325 323 326 326 326 326 325 322 324 323 322 324 322 323 324 325 327 327 327 327 327 327 327 325 326 326 326 326 325 324 322 320 319 318 317 316 315 314 313 313 310 310 310 311 312 312 307 303 305 300 298 301 304 308 312 314 314 314 313 313 313 313 313 311
308 309 309 310 310 311 311 312 311 311 311 311 312 315 318 319 321 323 324 324 325 324 324 324 323 320 322 320 319 318 317 318 318 321 323 323 324 325 326 327 327 327 327 327 326 325 326 326 326 325 325 324 322 320 319 318 318 317 316 314 313 312 311 311 310 312 312 313 309 301 299 297 302 300 300 305 309 312 313 314 313 313 313 312 311
308 309 309 310 310 310 310 310 309 310 311 313 313 314 316 318 318 320 322 324 324 324 324 324 323 323 321 321 320 320 320 319 319 320 321 322 323 325 326 326 327 326 327 327 326 325 325 326 326 325 325 324 323 322 321 320 319 317 317 316 314 314 313 311 310 309 312 312 313 312 306 302 298 298 301 300 297 308 311 312 314 313 313 312 312
306 306 307 307 308 307 308 309 310 309 311 312 312 312 314 316 316 317 319 320 322 322 323 322 323 323 323 323 323 322 321 322 322 322 322 323 324 324 325 326 326 326 326 326 326 326 325 326 326 326 325 325 323 323 322 320 320 319 318 317 317 315 313 311 310 310 307 311 313 313 311 305 299 300 300 299 298 296 303 309 311 312 313 312 312
306 306 307 308 308 308 309 311 310 310 309 310 311 311 311 313 314 315 317 318 319 321 322 323 323 323 322 322 322 322 322 322 322 322 322 322 322 323 324 325 325 326 326 326 326 326 325 326 326 325 325 325 324 323 322 322 321 320 319 318 318 317 315 313 312 311 309 310 312 312 311 312 309 304 299 302 297 296 300 300 305 309 310 312 313
305 305 306 306 307 308 308 309 309 308 307 308 310 310 310 311 310 310 313 315 316 318 321 322 323 323 323 322 322 322 323 323 321 320 320 320 321 322 322 323 324 325 326 326 326 326 324 325 326 325 325 325 323 324 323 323 321 320 319 318 317 317 316 315 314 313 311 310 310 310 311 311 311 311 308 303 303 300 302 302 303 301 305 309 311
303 304 305 305 306 306 306 307 307 307 305 305 306 307 308 308 309 309 310 311 314 315 318 320 322 321 322 322 321 322 321 321 319 319 318 319 320 321 321 322 323 323 324 325 325 325 326 325 325 325 325 325 322 323 323 323 322 321 320 319 318 316 317 316 315 315 314 313 312 311 309 310 310 310 309 308 305 305 303 303 303 302 302 307 310
303 303 303 304 302 304 305 308 306 304 304 304 304 304 305 306 308 309 309 310 310 314 316 318 320 321 321 321 321 321 321 320 319 319 318 316 318 319 320 321 322 322 323 323 324 324 325 325 325 325 325 323 322 323 323 323 323 322 321 320 318 317 316 316 314 314 314 313 312 311 310 310 310 308 309 309 308 304 303 304 306 305 304 305 307
303 302 303 305 305 305 303 304 304 305 306 307 305 306 305 305 305 307 306 307 308 310 312 315 316 318 320 321 321 321 321 321 320 320 320 319 318 319 319 319 320 321 321 322 322 323 323 324 324 324 324 324 324 324 323 323 323 323 321 320 319 318 317 316 316 314 314 314 313 312 312 312 311 311 311 309 308 308 306 304 304 303 301 305 303
302 303 304 304 303 303 304 304 304 304 303 303 304 303 303 304 304 306 308 305 306 307 309 310 312 315 318 319 320 321 320 320 320 320 320 320 320 319 318 318 319 319 320 320 321 321 322 322 323 323 323 323 323 324 324 324 323 323 322 320 319 318 317 316 315 315 315 314 313 313 313 312 312 313 312 310 309 309 307 305 306 304 303 303 302
303 304 303 303 302 304 304 304 305 304 303 302 302 301 302 303 302 304 307 305 304 305 306 307 309 312 315 317 319 319 319 320 320 320 321 321 321 320 320 319 319 319 319 320 321 321 321 321 322 322 323 323 322 323 323 324 323 322 322 321 320 319 318 317 316 315 315 315 315 314 313 312 312 313 312 311 309 307 306 305 305 298 299 303 298
302 302 303 303 303 304 304 304 304 304 303 301 299 301 300 302 302 303 304 304 303 304 304 305 307 308 310 314 316 317 319 319 320 320 320 320 320 320 321 321 320 320 320 321 320 320 321 321 321 322 322 322 322 322 322 323 323 322 322 321 321 320 319 318 317 316 315 315 314 314 313 313 312 312 312 311 311 310 308 307 305 302 301 299 299
301 302 303 303 304 303 303 303 303 302 302 299 299 299 301 301 301 302 303 303 303 302 303 304 306 306 307 309 313 315 316 317 318 319 319 320 320 320 321 321 321 321 321 320 320 320 320 320 320 321 322 322 322 322 322 322 322 322 322 321 321 321 319 318 318 317 316 315 315 315 314 313 313 312 312 312 311 311 310 309 307 304 302 300 296
300 303 303 303 302 302 303 302 302 300 299 300 301 299 301 301 301 301 300 300 301 301 302 302 303 303 305 306 308 310 313 315 317 318 319 320 319 320 320 321 321 321 321 321 320 320 320 320 320 321 321 321 321 321 321 321 321 321 321 321 321 321 320 319 319 318 317 316 315 315 314 314 314 313 312 311 311 311 311 311 310 307 306 303 301
304 305 305 305 305 305 304 301 300 300 300 300 299 297 298 299 300 301 300 300 301 300 300 301 302 302 303 304 305 307 310 313 315 316 318 318 319 319 319 319 320 321 321 321 320 320 320 316 320 320 321 321 321 321 321 321 321 320 321 321 321 321 321 320 320 319 318 318 317 316 315 315 314 314 313 313 311 311 311 311 311 310 309 306 305
303 303 304 304 305 305 304 303 300 298 297 298 298 297 298 298 298 299 301 301 301 301 300 302 301 303 304 304 304 305 306 309 311 313 315 316 317 318 319 319 320 319 319 319 319 319 319 319 319 319 320 320 320 321 321 321 320 320 320 320 320 320 320 320 321 320 319 319 318 317 317 316 316 316 315 314 313 312 312 312 312 312 311 310 308
303 302 303 303 303 303 302 301 299 299 297 296 295 295 297 298 298 298 298 298 299 299 300 300 301 300 302 301 302 302 303 305 307 309 311 313 315 316 317 318 319 319 319 319 319 319 318 318 318 318 319 319 320 320 320 320 320 320 320 319 319 319 319 319 320 321 320 320 319 318 318 318 318 317 317 316 316 315 313 313 313 313 313 312 311
300 300 300 301 301 300 299 297 296 297 295 296 295 297 296 296 297 297 298 299 298 299 297 300 299 300 299 301 302 302 303 303 304 306 308 310 312 313 315 317 317 317 318 317 317 318 318 318 318 317 318 318 319 319 320 320 319 319 320 319 319 318 318 319 319 319 320 320 319 318 318 319 319 318 318 317 317 317 316 314 313 313 313 313 312
299 298 298 298 298 297 297 296 295 295 297 296 296 295 296 296 296 296 296 297 297 299 298 299 297 299 298 301 301 302 302 303 303 305 306 307 309 311 313 313 313 316 316 316 316 317 317 317 317 317 317 317 318 319 319 319 319 318 318 319 319 318 317 317 318 318 318 319 319 318 318 318 318 318 318 317 317 317 317 316 315 313 313 312 313
299 298 298 298 297 298 297 296 296 296 296 296 295 295 295 295 295 294 295 298 297 299 297 296 297 297 299 299 299 300 300 300 301 302 303 304 306 307 308 310 311 313 313 314 315 315 316 316 316 316 316 317 317 317 318 318 318 317 317 318 318 317 316 316 316 316 317 317 317 316 317 317 318 316 316 316 316 316 316 315 315 314 312 312 312
296 296 297 297 297 295 295 295 297 297 295 295 294 294 294 294 294 293 294 296 296 295 296 295 295 296 296 296 297 297 296 296 296 298 299 300 302 302 304 306 308 310 311 312 312 314 314 314 314 314 314 315 315 315 315 315 317 316 316 317 316 316 316 316 316 315 315 315 316 316 316 316 316 315 315 315 315 315 315 314 313 313 313 312 312
296 297 298 298 298 298 298 296 296 295 294 293 294 294 294 295 293 293 294 294 294 294 293 294 292 293 294 294 295 294 293 294 295 295 295 296 297 298 299 301 303 305 308 309 310 309 310 312 313 314 314 314 314 314 315 315 315 315 315 316 316 316 315 316 316 315 310 315 315 315 316 316 315 314 315 314 314 313 313 313 312 312 312 312 312
296 295 294 295 296 295 295 295 294 294 294 294 293 294 293 293 293 292 292 293 294 291 289 290 291 292 294 293 294 293 293 293 293 293 294 295 296 296 298 299 301 304 305 306 307 308 308 309 310 312 312 313 313 312 313 313 314 314 313 314 314 314 314 315 315 315 315 315 315 316 316 315 315 314 314 314 314 313 313 312 312 312 312 311 311
295 295 294 293 294 296 295 294 294 294 292 293 293 295 294 292 292 290 288 288 290 288 288 289 290 289 291 293 293 293 293 292 293 293 293 293 294 295 296 298 298 299 300 302 303 304 305 305 308 309 310 311 313 312 313 313 313 314 313 313 313 313 313 314 314 315 316 316 316 316 316 316 315 315 315 314 314 313 312 312 312 312 312 311 311
291 291 292 293 293 292 293 294 293 293 291 291 291 292 291 289 290 290 289 288 292 289 289 289 288 289 290 292 292 291 292 292 292 292 293 293 293 294 295 295 295 297 298 299 301 303 304 303 305 306 308 309 309 310 311 312 312 313 312 312 312 312 313 313 314 315 315 315 316 316 316 316 316 316 315 315 314 313 312 311 311 311 311 310 310
291 292 292 292 292 293 293 293 292 290 292 291 290 291 290 290 291 290 288 290 289 288 289 288 288 289 290 290 290 291 291 291 291 292 292 292 293 292 293 293 293 294 296 297 299 300 300 302 304 305 305 306 307 308 310 310 311 311 312 313 314 313 313 313 314 315 315 316 316 316 316 317 313 305 304 305 308 308 314 312 311 311 310 310 310
292 292 292 291 292 291 291 290 290 290 291 291 292 293 290 289 291 289 289 290 289 290 289 289 289 290 289 289 289 288 290 289 290 291 291 291 291 291 291 291 292 292 293 293 293 295 297 298 300 301 303 306 308 310 303 301 301 308 312 313 313 313 313 313 313 314 314 315 315 316 315 303 301 300 299 300 301 301 301 309 314 313 311 310 308
291 291 291 291 290 289 289 289 289 290 290 292 291 291 289 288 288 288 288 288 287 288 288 288 289 289 289 289 289 290 289 289 289 289 289 290 290 290 289 290 290 290 291 291 290 293 294 295 297 298 299 301 304 306 300 302 302 301 304 310 313 314 314 314 313 314 313 313 314 314 315 308 301 299 300 298 299 299 300 299 299 301 303 310 307
291 291 290 288 288 289 290 290 291 290 289 289 290 289 287 288 287 287 287 287 287 287 287 288 288 288 289 290 290 290 289 289 288 289 289 288 288 288 288 289 289 289 290 288 289 291 292 292 294 294 295 296 298 297 299 300 299 299 297 302 306 310 312 313 313 313 313 313 313 313 313 313 312 310 311 309 302 298 298 299 299 299 299 301 304
289 288 288 288 289 290 290 290 289 290 290 290 288 287 287 287 286 286 285 285 285 286 285 287 287 288 288 289 288 288 288 289 289 289 288 288 287 287 287 288 288 288 287 288 289 289 289 290 290 292 292 292 293 295 296 296 296 297 297 297 301 304 306 308 311 312 311 311 310 310 310 312 313 300 299 308 309 307 298 297 297 297 297 297 299
287 287 288 289 289 289 289 290 290 288 287 288 287 287 287 286 286 285 285 285 285 284 284 285 286 286 286 286 287 287 287 288 288 288 288 287 287 288 287 286 286 286 287 287 287 287 288 288 289 290 290 291 291 293 295 295 295 295 296 296 298 299 301 303 305 308 310 311 312 310 309 309 309 306 305 306 308 308 309 306 303 302 303 299 296
287 288 288 288 288 287 287 287 287 287 287 286 285 285 285 285 286 285 284 285 284 284 284 285 285 285 286 286 286 286 286 286 287 287 287 287 286 286 287 287 287 286 286 287 287 287 287 287 288 288 289 290 291 293 294 294 294 295 295 295 296 297 298 299 301 304 306 307 309 310 309 308 307 303 305 304 304 306 306 307 305 304 304 303 303
290 289 289 287 285 286 286 286 286 285 285 285 285 284 283 284 284 284 283 283 284 284 284 284 284 284 285 285 285 285 285 285 286 286 286 286 286 286 286 286 286 286 286 285 286 285 286 287 287 287 287 288 289 292 293 293 293 294 295 294 295 296 296 297 298 300 301 304 306 307 307 307 308 307 301 299 300 304 304 302 299 301 301 302 303
288 288 288 287 285 284 286 285 283 284 284 284 283 283 283 283 283 283 282 282 283 283 283 283 283 283 283 283 283 284 284 284 284 285 285 285 285 286 286 286 285 286 286 286 286 286 286 286 286 287 287 287 287 289 291 292 292 293 293 293 294 294 295 296 297 298 299 300 301 302 302 303 303 302 298 299 299 297 301 301 300 298 299 298 299
286 284 285 285 285 284 284 283 283 283 283 282 282 282 282 282 283 282 282 281 283 283 282 283 283 283 283 283 283 282 283 283 283 283 284 284 285 285 285 285 285 285 285 286 286 286 286 285 286 286 286 286 287 288 290 291 292 292 292 292 292 292 293 293 295 295 297 298 298 292 292 298 298 299 297 298 299 297 298 298 297 295 294 295 296
285 285 285 284 285 285 284 282 282 284 284 282 282 282 282 282 282 281 281 282 283 283 283 283 283 283 283 282 282 282 282 282 282 283 283 284 284 284 285 285 285 285 285 286 286 286 286 286 285 286 285 286 287 288 289 291 291 292 291 291 291 291 291 291 292 293 293 294 295 293 291 292 294 295 296 297 297 296 298 298 298 297 296 296 298
283 283 284 284 283 283 283 283 283 284 283 283 282 282 281 282 282 281 281 282 283 283 283 282 283 283 283 282 282 282 282 282 282 283 283 283 284 284 284 284 284 285 285 285 285 285 285 286 285 285 286 286 287 287 287 290 291 291 292 290 291 289 289 290 291 291 291 292 293 294 293 294 296 296 296 296 296 296 296 297 297 297 296 296 297
284 284 284 283 283 282 282 283 283 283 282 282 282 282 282 281 281 281 281 282 282 282 282 283 283 283 283 283 283 282 283 283 282 283 283 283 283 283 283 283 284 284 284 284 284 284 285 285 284 284 285 285 286 286 286 289 290 291 292 291 289 290 290 290 290 290 291 291 292 293 293 293 294 295 295 295 295 296 295 295 296 296 296 296 294
282 282 282 282 282 281 281 282 282 281 282 281 281 281 282 281 281 281 281 281 281 282 282 282 283 283 283 282 282 283 283 283 284 284 284 283 283 283 283 283 283 283 283 283 283 284 284 285 285 284 284 285 285 285 285 287 289 290 291 291 290 289 290 290 289 289 290 291 291 292 292 292 293 293 294 295 295 296 295 294 295 295 296 296 295
282 282 281 281 282 282 282 281 281 281 281 280 280 280 280 281 281 282 281 281 281 282 282 282 282 282 282 282 282 282 283 284 284 284 285 284 284 283 284 284 284 283 283 283 283 283 284 284 285 285 285 285 285 285 286 286 287 289 290 291 291 291 291 290 289 289 289 290 291 291 291 290 291 292 293 294 294 295 294 294 295 295 295 294 293
281 281 281 280 281 280 281 281 281 281 281 280 281 281 280 279 281 281 280 280 280 281 281 281 281 281 281 281 282 282 283 283 283 284 284 284 284 284 284 284 284 284 284 284 284 283 283 283 284 285 285 285 286 285 285 286 286 288 290 291 291 292 292 290 289 290 290 290 290 290 290 291 290 291 291 292 293 292 292 294 294 294 293 292 292
280 280 279 279 281 280 280 279 279 280 280 280 278 279 278 279 282 281 281 281 281 280 280 280 279 280 280 281 281 281 281 282 282 283 283 283 283 283 283 284 284 284 285 284 284 284 283 283 283 284 285 285 286 285 286 286 286 286 288 290 290 291 291 291 289 289 289 290 290 290 290 289 289 290 290 290 290 290 291 292 292 292 290 292 291
279 280 279 278 278 278 278 278 279 278 279 279 279 277 278 281 281 281 281 281 280 280 280 280 280 280 280 280 280 280 280 281 281 282 282 282 283 283 283 283 283 284 284 284 284 284 283 283 283 284 284 285 285 284 285 286 285 286 286 288 288 289 288 288 288 288 288 288 288 288 288 288 288 288 288 288 288 289 289 289 289 289 290 290 290
279 279 278 280 277 279 277 276 276 278 278 279 277 279 278 279 280 281 280 279 279 279 279 279 279 279 279 279 279 280 280 280 280 280 281 281 282 282 283 283 283 282 283 283 284 283 283 283 283 284 284 285 285 285 285 285 286 286 287 287 288 288 287 287 287 288 288 288 288 288 288 288 288 288 287 287 287 288 288 289 289 289 289 290 290
277 277 276 276 277 276 277 276 277 278 278 278 278 278 279 279 279 279 279 278 278 278 278 278 277 277 278 278 279 280 279 278 279 279 280 280 281 281 281 281 282 283 283 283 284 284 283 284 284 284 285 285 285 284 284 284 286 287 288 288 288 287 287 288 288 288 288 288 288 288 288 287 287 287 288 288 288 288 288 288 289 289 289 289 288
277 277 275 277 276 276 275 275 277 277 276 275 275 276 277 277 277 278 277 276 277 277 277 275 276 276 276 278 277 277 277 277 277 278 280 281 280 281 282 282 283 283 283 283 284 284 285 285 285 285 285 285 285 285 285 287 287 288 287 287 287 287 287 288 287 289 288 288 288 288 288 287 287 287 287 287 287 287 288 288 287 287 288 288 288
276 276 274 274 273 273 274 274 276 276 275 275 274 275 276 275 276 275 275 275 275 275 274 274 275 275 275 275 275 276 276 277 278 278 278 279 282 282 282 282 282 284 285 286 286 284 285 285 285 286 286 285 285 286 288 288 288 288 288 288 288 289 289 288 288 289 288 287 287 287 287 287 287 287 287 287 287 287 287 287 287 286 287 287 287
275 273 273 273 274 273 273 272 274 274 273 273 273 274 274 275 273 274 274 274 273 273 273 273 274 273 274 274 275 275 276 277 278 278 278 277 277 279 282 283 284 284 284 285 286 286 287 286 286 285 286 287 287 287 288 288 288 288 288 288 288 288 289 289 289 287 286 286 286 286 287 287 287 287 287 287 287 287 287 287 287 287 286 286 286
Wind_Speed
8 9 9 9 10 9 8 7 8 7 7 8 8 9 10 12 10 12 12 10 9 9 8 9 9 8 6 9 11 10 10 10 9 9 10 10 10 9 8 9 9 9 9 9 10 9 9 8 8 8 7 8 9 11 10 10 9 9 8 8 10 10 9 7 5 3 5 8 8 8 8 8 9 8 11 10 10 10 8 9 9 8 9 10 10
6 7 9 8 8 8 6 6 6 7 10 8 10 12 12 11 11 13 9 9 11 11 11 10 10 10 10 11 11 10 9 10 11 10 11 10 8 8 8 8 9 9 9 10 10 10 10 9 9 9 8 9 9 9 8 9 9 9 7 7 7 10 10 7 6 5 7 11 8 6 7 8 10 9 11 12 12 10 9 9 9 10 11 11 9
9 9 9 8 7 7 5 7 8 11 11 11 12 10 9 10 11 10 9 10 11 11 10 10 9 9 9 9 10 8 7 8 8 8 7 8 7 8 8 8 10 10 10 10 10 11 11 10 10 9 9 9 9 10 9 10 10 11 10 10 8 7 8 5 8 11 11 4 1 3 8 5 4 5 10 15 13 12 9 10 11 11 14 11 9
12 12 12 11 9 8 5 6 9 7 8 6 7 9 9 9 10 10 10 10 10 10 11 11 10 8 7 5 4 6 5 4 5 5 5 6 9 8 9 10 11 11 11 11 11 11 12 11 10 10 10 9 10 10 11 12 10 10 11 11 9 9 8 9 8 10 10 7 4 10 3 1 8 9 11 10 11 14 12 12 10 12 12 10 8
12 12 12 11 11 11 11 10 5 6 7 8 8 9 9 12 13 12 12 11 11 9 11 8 5 4 4 3 0 2 2 3 4 7 8 8 8 9 12 10 11 11 11 12 11 12 11 11 11 10 10 10 9 11 11 12 11 11 11 10 11 12 12 8 6 9 12 10 8 3 1 2 9 5 1 7 5 9 13 14 12 12 11 11 10
12 13 12 11 10 10 7 8 6 7 8 9 9 10 8 9 9 9 8 7 8 8 8 7 8 8 7 7 8 8 9 7 10 11 9 11 12 10 8 10 11 11 11 11 12 11 11 12 11 11 11 10 10 10 10 10 12 12 11 11 13 14 11 7 9 6 11 12 14 11 6 7 3 3 1 8 3 8 7 9 13 13 12 12 11
9 9 10 9 10 7 8 8 9 8 10 6 4 5 6 7 6 6 7 6 5 5 7 8 8 8 10 11 11 11 12 10 8 7 9 9 8 9 10 9 10 11 11 11 11 11 11 11 11 11 11 11 10 10 11 12 11 11 10 11 13 10 10 12 12 8 4 10 13 15 15 7 2 2 6 2 7 3 4 7 10 11 11 13 12
10 11 12 11 9 8 11 11 9 7 4 2 5 5 5 7 5 5 5 6 5 5 6 9 9 9 10 10 10 11 11 12 8 8 7 6 7 10 8 9 9 10 11 11 12 12 11 11 11 11 12 12 11 11 13 12 10 10 11 12 11 10 11 13 13 9 11 10 10 13 14 15 11 7 3 3 4 6 8 4 6 7 8 12 12
10 10 11 11 9 9 9 8 6 4 4 4 3 3 3 3 2 2 4 4 4 5 7 8 9 10 10 9 10 10 10 9 6 5 7 7 9 8 9 9 9 10 11 12 12 12 11 12 12 12 12 12 11 12 12 12 14 13 12 11 12 12 11 12 11 12 11 13 7 11 12 12 13 12 10 5 8 7 14 11 12 2 4 11 10
5 7 8 7 7 6 5 5 4 2 2 2 1 1 1 1 2 2 4 4 4 4 5 6 8 7 8 9 10 10 8 8 5 7 7 6 9 10 9 9 9 9 10 11 12 12 12 12 12 13 14 13 11 12 13 13 13 14 14 13 12 13 11 12 14 13 11 11 11 9 9 11 10 10 11 12 10 11 16 12 9 8 10 10 10
7 7 7 7 4 4 2 1 1 2 1 1 3 3 1 1 0 1 3 1 2 4 5 7 6 6 8 9 10 11 10 8 7 8 7 6 9 10 9 9 8 9 9 10 12 12 12 12 12 13 13 12 12 13 13 13 13 13 13 13 14 15 13 13 13 13 12 12 12 11 12 12 13 14 14 12 12 10 10 14 16 13 12 11 9
7 6 4 0 1 1 2 5 5 4 5 7 5 5 5 4 2 2 3 2 1 1 3 4 5 6 7 8 9 10 9 8 10 11 10 10 10 10 8 7 8 8 9 9 10 11 10 11 12 12 12 12 13 13 12 12 12 11 11 12 13 14 14 13 13 14 16 13 13 12 13 12 12 13 13 9 10 13 11 13 11 6 4 11 5
5 4 5 3 3 3 4 4 5 5 4 4 5 4 4 4 4 4 5 3 1 1 2 4 4 5 7 8 9 9 8 9 9 10 9 9 9 9 8 8 8 8 9 10 10 11 10 11 11 12 12 13 14 13 13 14 12 12 12 13 13 14 14 14 13 15 15 14 14 13 12 12 14 13 11 10 8 9 9 12 13 8 12 8 5
5 5 5 5 3 0 1 4 2 2 3 4 4 4 4 3 3 2 5 4 3 2 2 3 4 5 5 6 7 7 8 8 9 9 9 8 8 9 9 9 9 10 10 11 10 10 10 11 12 13 13 13 13 14 14 13 13 12 13 13 14 14 13 15 15 16 15 15 13 12 13 13 13 12 12 10 11 9 10 12 12 5 5 11 4
4 4 5 5 4 2 4 4 2 1 1 2 3 3 3 3 3 3 4 4 3 3 3 4 4 4 4 5 6 5 7 7 8 9 9 9 8 9 9 9 9 9 10 10 8 9 11 11 12 13 13 13 13 12 12 13 13 12 12 14 13 12 14 14 14 15 15 16 16 14 13 12 12 12 11 12 10 11 11 10 8 12 11 8 9
3 3 4 5 5 4 3 3 2 1 0 1 1 2 2 2 2 2 3 4 4 4 4 3 4 4 4 4 5 5 6 6 7 7 8 8 8 8 10 10 9 9 9 8 9 9 10 11 12 13 13 13 12 13 13 12 13 13 12 12 14 11 13 15 14 14 16 17 17 15 13 14 12 11 12 11 11 11 10 9 9 9 11 17 6
4 5 6 6 6 5 5 5 2 1 1 2 2 2 2 2 2 3 3 3 4 4 4 3 4 4 5 4 4 5 5 7 8 9 9 8 8 9 10 10 9 9 9 7 9 8 10 11 11 12 13 13 13 13 13 13 12 12 13 13 14 13 14 14 13 14 14 14 14 15 14 13 12 11 12 11 11 10 11 10 10 12 10 12 14
13 12 10 10 9 8 6 5 5 4 2 2 3 3 3 3 2 3 4 4 4 3 4 4 4 4 4 4 4 5 5 6 7 8 8 7 8 9 8 9 10 9 8 8 8 9 9 10 11 11 11 12 13 13 12 13 12 12 13 13 13 13 13 12 13 13 14 12 14 13 13 13 12 12 13 12 11 12 12 12 11 11 10 13 13
9 10 9 9 9 8 7 6 5 4 3 3 4 3 1 2 3 3 4 4 4 4 4 5 4 4 4 4 5 5 5 6 6 7 7 8 9 9 9 10 9 8 8 8 9 9 9 10 10 11 11 12 12 12 12 12 12 12 12 12 13 13 13 14 13 12 13 12 14 15 14 14 13 14 14 12 12 11 12 11 12 11 12 13 14
5 7 9 10 9 8 8 6 4 3 3 4 3 1 3 3 1 3 4 4 5 5 4 5 5 4 5 4 5 5 6 6 6 5 7 7 8 8 9 9 10 8 9 9 9 9 10 10 9 10 11 11 12 12 12 13 12 13 12 12 12 13 15 15 14 13 11 12 15 16 16 14 13 12 13 12 12 12 11 12 12 12 13 12 12
5 5 6 8 8 6 5 5 4 1 2 2 2 1 2 1 3 3 4 5 4 5 4 5 4 5 4 5 6 6 7 5 6 6 7 8 8 8 8 8 7 9 8 9 9 10 10 10 10 10 11 11 11 12 11 11 12 13 13 14 13 13 15 15 13 15 14 14 15 16 15 15 13 14 12 11 12 12 12 12 11 11 12 11 12
6 5 4 2 2 4 4 2 2 1 0 1 0 0 0 1 3 3 2 4 5 6 4 5 4 4 4 5 6 6 5 5 6 7 7 8 8 7 7 7 7 9 7 9 10 10 9 9 10 11 11 11 11 12 11 11 12 13 14 12 13 14 15 15 13 15 14 13 14 14 15 13 12 14 14 13 12 12 12 12 11 11 12 12 11
7 6 5 5 6 6 6 3 3 1 0 0 2 2 3 2 2 3 2 6 4 5 4 4 4 4 5 5 5 6 5 5 6 7 7 8 8 7 6 8 9 9 7 8 9 9 9 9 10 10 10 11 11 11 10 11 12 13 14 13 13 13 15 15 15 16 15 13 14 14 14 12 11 13 14 13 12 13 12 13 13 11 12 12 12
3 3 3 4 3 3 2 3 3 5 5 5 4 3 3 3 2 2 4 6 5 4 4 4 4 4 4 4 5 5 6 6 5 6 7 7 7 7 6 7 8 8 9 8 7 8 9 9 9 10 10 10 10 10 10 10 12 13 13 14 13 13 13 14 15 15 14 13 14 14 14 12 12 13 13 12 12 12 12 12 13 11 11 12 11
3 4 3 2 3 3 1 3 3 5 5 4 3 3 3 4 3 3 4 4 5 5 4 4 4 5 6 6 7 6 5 6 7 6 7 7 6 7 6 7 7 8 8 8 8 6 8 8 10 10 10 10 11 11 11 11 11 11 12 13 12 12 13 14 14 14 13 13 13 14 15 13 13 14 14 13 11 12 12 11 12 11 11 10 9
4 4 3 4 4 2 2 3 4 4 5 5 4 3 3 3 4 3 4 6 6 6 5 5 5 6 7 7 7 7 7 7 7 7 7 7 7 6 7 6 6 8 8 8 8 7 7 9 9 10 10 11 10 10 10 11 11 11 11 11 11 11 12 13 13 13 13 12 13 14 14 13 13 14 14 12 12 13 11 12 13 12 11 10 11
3 3 3 4 4 4 4 4 4 5 3 3 3 5 5 5 5 4 4 3 4 5 5 5 6 5 6 7 7 7 8 8 8 8 8 7 7 7 7 7 6 6 7 8 8 8 7 7 9 8 10 10 10 9 10 10 11 10 10 11 11 11 12 11 12 13 12 13 13 14 14 13 14 14 14 14 12 12 12 13 13 12 12 12 13
4 4 4 4 5 5 6 6 5 4 4 4 4 3 3 4 4 4 4 4 5 5 5 5 5 6 5 7 6 7 7 8 7 7 7 7 7 7 7 7 6 7 7 7 8 9 8 6 8 7 9 8 8 8 8 9 9 9 9 10 10 11 12 12 12 12 12 12 13 14 14 14 14 15 14 13 12 12 9 10 9 9 10 11 12
5 6 4 3 4 5 6 5 4 5 6 5 5 5 4 3 2 4 4 4 4 4 5 5 5 5 5 5 6 5 6 6 7 7 8 8 8 8 7 7 6 7 6 6 7 7 8 8 7 7 7 7 8 9 7 8 9 10 9 11 12 12 12 12 13 13 13 13 13 14 14 14 14 17 19 18 17 17 14 13 11 9 11 11 12
6 6 5 5 6 4 3 4 4 4 4 5 5 5 4 4 4 4 4 4 4 4 4 5 5 6 5 5 5 5 6 6 7 7 8 8 8 8 9 8 8 7 7 6 6 6 7 8 9 8 7 7 7 7 9 14 13 10 10 10 11 11 11 12 13 13 13 13 14 13 13 17 18 18 19 20 19 17 17 16 15 12 14 13 13
6 5 6 6 1 2 1 3 3 2 3 4 3 2 2 2 3 3 4 4 3 4 4 3 4 4 5 5 6 7 6 7 6 6 7 8 9 8 8 8 8 8 8 7 6 7 7 6 7 8 8 7 7 8 12 13 13 15 12 11 12 12 12 12 13 13 14 13 12 12 12 14 15 17 17 20 18 18 19 21 23 21 16 12 10
6 6 3 2 2 1 2 2 2 2 3 2 1 1 1 2 2 3 4 3 3 4 4 4 4 4 5 6 6 7 8 8 7 7 7 7 7 8 8 8 8 9 8 7 7 7 7 6 6 6 7 7 7 9 13 14 13 12 10 8 9 10 11 11 12 12 11 11 11 11 11 10 10 11 11 12 15 19 21 21 22 22 23 25 23
5 1 0 0 2 4 3 2 2 2 1 0 1 0 1 1 2 3 2 3 4 4 4 4 4 5 6 6 7 8 8 8 8 8 8 8 7 8 7 8 9 8 7 8 8 8 7 7 6 8 8 6 6 9 13 14 13 14 14 11 9 9 9 10 10 10 9 8 6 7 9 9 10 14 12 11 9 10 15 21 22 22 21 20 19
1 2 4 4 3 2 1 1 1 0 1 1 1 0 1 1 1 3 2 3 2 3 3 4 4 5 5 5 6 7 8 9 9 9 9 9 8 9 8 6 7 7 7 8 7 8 8 7 7 8 8 7 7 9 12 13 13 13 14 13 10 11 11 12 12 11 11 12 13 14 13 12 10 9 10 12 12 13 12 10 12 12 13 17 21
3 4 4 4 4 3 1 1 1 0 0 0 1 1 1 1 1 2 2 2 3 3 4 4 5 5 5 6 7 7 8 8 9 9 9 9 8 8 9 8 7 8 8 9 9 9 8 7 8 7 8 8 7 12 13 13 12 12 13 12 9 10 10 12 12 11 12 12 12 11 11 12 9 7 9 10 10 11 10 11 12 12 12 12 12
7 8 6 6 5 5 5 3 1 0 0 0 1 2 2 2 1 2 2 3 2 3 3 4 4 5 5 5 5 6 7 7 8 9 9 10 9 8 9 9 8 8 6 6 7 5 8 8 7 7 8 9 8 11 13 12 12 11 13 9 8 9 10 10 10 11 11 12 12 11 10 11 12 13 14 14 13 11 10 13 13 14 13 12 12
5 6 6 4 4 3 2 1 1 1 0 1 1 2 2 3 4 4 4 3 3 4 4 4 4 4 4 5 4 5 6 6 7 8 9 10 10 12 10 6 9 9 9 9 8 7 6 7 8 7 8 9 8 9 12 12 12 13 11 8 8 8 9 10 10 9 9 10 10 10 10 11 11 11 10 9 11 12 11 14 15 14 13 11 14
5 3 2 1 1 1 1 3 3 3 3 2 2 2 2 4 4 4 4 4 4 5 4 5 5 5 5 5 4 4 5 5 5 6 8 8 9 7 7 6 8 11 11 10 9 10 7 5 7 8 7 9 9 9 12 14 15 14 12 9 8 8 10 9 10 9 8 9 10 13 12 12 12 11 11 12 13 10 10 12 11 11 12 13 13
6 6 5 3 2 3 3 2 2 1 2 2 0 1 3 3 2 2 3 4 5 5 5 6 7 6 6 5 5 4 5 5 5 6 6 8 8 9 9 7 8 8 9 9 8 9 9 5 5 7 8 9 9 9 11 13 14 14 11 7 7 7 10 9 9 10 7 8 9 7 11 10 10 12 17 16 15 11 10 12 11 10 14 16 15
4 3 4 4 3 3 1 1 0 0 1 1 0 2 3 3 3 2 4 4 4 4 4 5 5 6 6 6 5 6 5 6 7 7 6 6 7 7 8 9 8 7 9 9 8 8 10 9 5 5 6 7 8 8 8 13 13 14 14 9 7 7 9 10 9 9 10 8 7 8 7 11 14 17 17 16 15 15 12 11 10 11 14 18 7
5 4 5 5 4 4 4 3 2 1 1 1 1 3 3 2 2 4 4 3 4 4 4 5 5 6 7 6 6 6 8 7 6 7 7 6 6 7 7 8 9 8 8 9 9 9 9 10 6 5 6 6 7 8 8 11 12 13 14 12 6 8 8 9 9 9 8 10 8 7 7 8 13 15 15 16 16 16 16 13 12 12 12 11 8
2 4 5 5 4 3 2 1 1 1 2 2 2 2 1 1 3 4 4 3 4 4 4 5 6 6 7 7 7 7 6 7 7 7 8 8 6 6 6 7 7 8 10 10 9 9 9 10 8 5 5 6 7 9 7 9 12 13 13 14 9 7 8 9 10 9 8 8 8 8 7 8 12 14 14 15 17 17 18 13 13 16 18 18 13
3 4 1 3 4 4 4 4 4 4 3 3 3 4 3 2 4 4 3 3 4 4 5 6 6 7 6 6 6 7 8 7 8 8 9 10 8 7 6 5 7 8 9 10 10 9 9 10 10 7 5 6 5 7 9 8 10 13 13 13 13 11 12 9 9 10 9 9 8 8 8 11 14 14 15 16 16 18 16 13 17 18 18 19 16
1 2 2 4 5 4 4 5 5 5 5 4 5 5 4 5 5 4 4 4 4 5 5 6 6 6 6 6 5 6 7 7 9 10 10 10 10 9 8 6 6 6 8 10 8 7 8 9 10 11 6 4 5 6 7 9 10 12 12 13 13 13 13 9 9 9 9 9 9 9 10 14 15 16 17 18 17 17 13 17 18 18 17 15 10
2 3 2 4 4 4 3 4 4 5 5 5 4 4 5 5 5 5 5 5 6 5 6 6 6 6 6 6 6 6 6 6 7 8 10 11 11 9 10 8 7 8 8 9 10 7 7 9 10 10 10 7 5 5 6 7 11 12 12 12 13 13 13 14 11 8 8 9 11 16 17 17 16 17 18 18 16 16 18 18 18 17 16 8 7
4 4 3 3 3 3 3 4 5 4 5 4 4 4 4 5 5 6 6 6 6 7 7 7 7 7 7 7 7 7 5 6 7 7 7 8 9 10 9 9 7 8 8 9 10 8 8 8 9 10 10 9 6 5 6 6 6 7 7 9 12 13 14 15 15 13 16 18 18 18 19 17 15 13 11 9 8 9 13 16 15 13 8 7 6
4 4 4 5 4 4 4 3 4 4 4 4 5 4 4 4 6 6 6 6 6 7 7 7 7 7 6 6 8 8 9 8 7 8 8 8 8 8 8 9 8 8 9 9 9 9 8 7 9 10 10 10 8 6 5 5 5 4 5 6 8 8 11 12 10 9 10 10 12 12 10 12 12 15 15 15 14 13 10 9 7 6 6 6 6
3 3 4 4 4 4 4 3 3 3 4 4 4 5 5 6 6 6 6 6 6 6 7 7 7 7 6 7 7 10 10 9 9 8 9 9 8 7 9 9 8 8 9 11 9 9 8 9 10 10 11 11 10 6 5 5 5 7 9 8 7 8 7 7 9 9 9 10 10 11 11 8 8 7 7 6 6 6 6 6 6 5 6 5 7
5 4 4 4 4 5 5 5 4 3 4 4 4 4 5 6 6 6 6 5 6 5 6 6 6 6 7 7 7 8 8 9 9 9 8 8 9 9 9 10 7 7 7 9 11 11 9 8 9 10 11 13 12 8 5 7 11 13 12 11 10 9 9 9 10 14 13 11 9 9 8 7 6 7 6 6 6 5 5 6 6 5 5 5 4
2 2 3 4 4 4 5 6 5 5 5 5 5 5 5 5 5 4 4 5 6 6 6 6 6 7 8 8 8 8 7 8 8 9 10 10 9 12 12 10 11 9 13 15 12 12 11 10 12 10 7 11 13 13 15 18 17 16 16 16 16 17 16 15 16 19 14 12 10 9 9 8 8 7 7 6 6 5 5 5 5 5 5 5 5
3 4 5 5 5 6 6 7 7 7 7 7 6 6 6 6 4 4 5 6 7 8 8 7 7 7 8 9 9 9 8 8 7 8 9 12 14 9 10 16 16 16 15 15 16 16 16 15 12 14 12 14 19 21 20 18 18 17 18 18 19 18 18 17 17 14 12 9 10 10 10 8 8 8 8 7 6 6 6 6 5 5 5 6 6
Wind_Direction
238 236 242 242 244 241 233 225 232 234 233 226 221 218 215 213 204 215 214 204 200 201 202 200 205 215 221 217 224 221 220 220 220 221 221 224 221 213 209 212 213 211 213 209 216 219 223 221 214 210 204 210 218 224 219 219 216 214 221 217 226 235 242 226 233 191 234 266 252 260 271 259 255 249 248 245 238 235 224 222 224 220 222 223 221
282 272 249 238 247 245 231 227 224 231 238 221 222 220 215 214 212 221 212 204 207 205 203 203 207 205 201 212 217 220 218 215 224 220 222 226 221 213 213 213 213 216 216 215 217 216 222 225 223 221 211 218 224 229 225 221 214 213 211 229 217 224 237 205 201 144 234 231 249 285 279 264 246 244 246 246 240 236 224 222 221 221 223 223 223
262 259 269 265 251 251 229 228 228 223 231 217 223 222 219 215 220 221 215 208 211 208 203 210 210 212 205 215 209 225 225 225 230 229 228 230 223 217 214 212 213 218 216 215 220 220 223 223 225 219 218 218 224 229 227 225 216 215 209 217 223 228 239 207 192 187 232 209 180 347 273 293 277 248 244 241 234 233 222 225 224 225 226 223 218
252 252 255 256 254 254 247 236 230 227 237 238 230 223 224 223 222 219 219 214 215 209 209 215 212 214 219 226 224 217 219 226 232 234 230 224 228 214 216 215 213 218 216 217 219 223 220 224 226 223 222 214 222 230 228 231 221 220 216 218 213 230 223 231 197 200 209 129 221 216 234 180 306 249 231 244 218 231 219 227 222 227 228 226 216
248 255 253 253 257 251 242 241 228 216 230 229 223 219 218 220 219 215 216 213 214 209 208 210 202 202 211 223 216 274 271 211 210 233 225 228 231 219 222 212 216 218 217 218 219 223 222 224 225 227 227 223 221 229 231 229 226 224 218 217 211 221 229 224 217 205 212 205 191 121 205 228 235 265 80 268 200 224 228 225 225 227 227 223 216
238 243 245 248 251 262 269 266 261 240 235 232 216 220 223 231 229 227 225 222 216 209 200 189 200 202 191 203 222 224 235 215 218 220 216 220 224 227 229 217 219 222 220 220 221 222 224 223 224 226 229 228 224 230 236 233 229 224 218 218 223 222 230 224 231 211 216 214 221 225 171 188 198 257 126 272 319 239 237 227 226 224 225 226 221
248 259 263 260 256 259 267 262 252 246 240 243 250 233 228 234 233 225 225 228 217 198 182 185 201 207 208 212 217 219 228 234 224 224 224 227 225 227 226 222 222 223 226 223 223 222 224 224 223 226 229 231 229 230 233 233 233 228 222 220 226 222 218 234 230 218 206 234 227 232 244 233 152 126 238 340 303 316 256 234 235 226 225 229 226
243 242 246 246 248 237 246 250 248 251 282 270 244 245 228 230 223 223 227 228 219 194 185 189 200 207 214 221 224 229 228 240 216 224 222 222 221 228 225 226 222 224 227 226 226 225 222 224 223 225 228 229 227 230 233 234 235 233 224 225 226 221 217 224 234 215 205 229 218 231 238 247 240 247 208 214 239 284 291 298 260 239 230 237 229
235 242 247 245 240 242 243 265 284 304 289 278 260 260 269 281 256 236 238 231 226 201 197 201 206 208 211 218 228 233 238 244 235 217 218 212 227 228 224 226 223 223 225 226 226 226 223 224 222 224 227 229 223 232 234 232 230 231 227 223 223 224 220 226 230 230 217 231 206 228 234 239 243 244 248 219 244 261 269 255 261 256 253 247 234
276 256 265 273 254 255 258 257 290 298 286 273 278 282 303 302 270 249 250 226 221 210 210 215 214 214 217 221 228 238 230 242 227 228 223 212 227 232 227 228 225 225 226 226 228 225 225 223 224 226 227 230 228 232 234 233 232 230 229 227 225 227 224 223 225 232 229 231 222 223 217 234 244 249 240 237 241 228 250 255 249 233 240 239 225
251 240 234 241 267 261 272 182 280 324 319 5 16 14 8 46 39 303 271 278 218 207 197 215 215 213 223 227 230 238 237 232 234 238 230 221 229 234 228 228 224 228 225 227 226 225 225 224 225 227 229 230 230 232 233 233 233 232 231 229 228 226 226 226 228 234 233 231 226 222 225 218 220 223 230 224 223 232 241 251 257 240 240 269 236
235 230 255 60 91 34 35 33 17 6 14 11 356 358 5 3 29 353 311 293 292 242 201 225 216 222 229 234 237 240 240 235 233 238 230 230 230 237 232 229 231 230 228 231 229 226 226 227 228 230 231 231 232 232 234 234 234 232 231 228 230 230 230 228 229 231 230 233 231 227 229 229 232 235 237 227 218 234 229 248 248 258 253 238 260
221 184 139 117 105 57 36 33 32 21 359 340 348 344 348 353 16 9 316 323 299 265 224 231 218 223 221 230 238 242 246 241 241 243 238 237 235 239 233 230 231 232 229 231 231 223 220 226 228 228 230 230 233 232 234 233 232 231 231 230 230 230 228 226 229 231 229 228 232 231 233 231 234 237 242 237 236 239 232 252 251 240 253 265 256
218 172 156 132 101 73 105 92 79 9 357 343 337 354 345 343 357 12 304 317 320 322 271 262 249 241 236 234 238 236 242 243 244 245 245 239 237 240 236 234 233 231 233 230 230 224 220 223 226 229 231 233 231 232 233 233 230 230 230 231 231 232 231 228 231 233 234 235 235 237 232 233 237 237 240 238 236 231 238 239 262 260 245 264 288
233 145 134 137 140 147 122 111 113 156 313 329 326 326 355 340 351 347 327 318 335 308 312 288 275 266 254 248 249 243 245 244 246 245 248 246 239 240 241 239 237 238 235 237 228 222 222 224 226 230 231 232 231 231 232 233 231 231 231 232 233 231 233 230 232 231 235 234 234 234 238 237 237 239 240 240 236 235 238 246 248 266 270 253 263
242 131 147 150 157 154 139 137 160 185 250 296 296 289 330 297 302 277 262 289 305 303 289 268 277 282 274 266 258 253 253 255 260 254 252 248 250 242 245 241 239 241 241 237 230 220 222 224 225 229 231 233 232 230 231 231 230 231 232 231 235 230 236 231 234 232 236 235 237 238 240 240 237 238 239 241 238 239 240 245 240 246 261 276 247
184 174 157 164 146 151 162 160 167 201 241 237 246 243 239 276 306 310 303 305 292 281 278 280 274 289 282 271 272 269 260 254 254 258 254 252 247 248 247 246 244 239 242 233 236 224 225 224 227 229 230 232 233 231 230 230 230 231 232 233 235 233 235 235 234 234 237 234 238 236 238 242 238 238 240 238 239 239 239 240 231 237 239 256 275
178 172 166 155 154 162 179 192 189 183 202 227 248 231 213 221 232 264 294 301 295 290 289 283 284 281 283 286 273 254 258 261 259 263 262 258 254 252 253 255 248 245 239 239 234 233 230 225 228 230 230 230 231 233 232 232 230 233 232 234 235 235 238 239 236 237 238 235 238 237 236 241 236 236 237 234 233 234 236 235 236 235 228 242 256
162 159 151 148 150 166 176 194 218 220 236 236 253 262 270 245 232 212 247 247 260 286 284 287 260 258 263 272 280 285 267 262 263 263 268 263 262 260 255 253 258 252 249 245 239 237 233 230 225 230 229 230 229 231 230 233 229 235 232 237 234 234 238 240 237 235 237 234 238 238 235 239 233 236 237 235 233 230 233 234 238 230 233 233 246
184 163 154 155 163 168 178 184 204 220 228 238 239 294 286 276 241 245 267 273 284 277 271 278 273 262 276 287 283 269 273 271 273 276 273 264 265 265 264 264 259 256 249 246 245 242 239 237 232 231 231 231 229 228 225 228 228 231 232 233 234 230 235 238 238 233 236 234 236 238 236 237 236 237 237 234 235 231 230 233 232 234 235 230 237
212 177 163 159 164 174 190 201 205 240 263 246 221 217 263 310 284 255 245 275 271 266 272 259 272 274 273 281 284 292 290 291 291 283 277 276 275 270 268 264 270 259 254 251 246 246 244 241 239 236 234 234 232 232 226 227 227 230 230 232 233 229 235 237 237 239 235 237 237 240 240 238 237 239 239 236 235 234 232 232 231 233 236 229 229
167 154 135 163 172 205 222 242 272 257 278 336 290 20 5 302 273 289 283 261 256 277 247 258 255 255 264 271 278 285 295 309 304 300 292 288 288 288 283 286 268 266 256 255 249 250 247 246 244 243 240 239 239 237 233 228 230 230 233 230 232 231 235 237 235 240 236 236 240 242 244 241 237 240 243 238 236 235 233 235 232 226 232 231 217
168 161 180 188 190 194 196 192 221 196 188 319 342 7 337 319 295 291 277 275 244 258 272 263 263 261 266 269 286 294 318 316 315 307 305 300 299 297 297 290 284 280 273 259 260 256 254 250 250 248 247 246 243 242 239 233 234 232 234 233 230 230 233 236 236 239 239 237 240 240 243 240 237 240 241 239 237 237 235 236 237 227 232 229 220
148 185 205 213 219 256 271 253 337 359 347 328 308 320 329 311 289 271 279 287 302 290 293 285 276 280 283 301 297 311 324 317 315 305 302 301 300 299 300 294 287 286 283 277 265 265 262 257 255 255 250 251 250 246 243 237 237 235 237 237 235 234 235 236 238 240 239 238 239 243 243 238 239 241 242 238 237 235 236 236 238 234 233 233 225
150 188 206 269 274 269 276 10 320 319 308 283 300 298 308 309 309 323 310 305 299 316 325 320 327 318 314 315 310 319 319 315 312 310 303 302 301 300 298 292 294 290 285 283 278 262 263 261 259 256 254 251 249 247 247 244 240 240 241 241 240 238 238 239 240 241 239 237 239 239 243 236 236 239 241 238 239 234 235 234 237 233 232 234 233
196 229 257 246 235 239 290 293 300 267 253 283 301 298 296 325 349 2 338 336 334 340 347 346 341 338 321 323 321 327 325 320 314 311 307 307 306 303 303 299 289 291 294 287 285 283 267 267 261 261 258 257 255 251 249 249 246 242 242 244 244 242 243 243 244 243 241 239 241 243 243 239 238 239 243 240 238 238 235 233 231 227 225 226 231
220 246 297 341 322 304 288 274 260 270 280 284 305 340 359 359 344 353 355 339 328 337 343 356 343 340 332 328 328 326 323 321 319 315 313 312 309 305 303 301 301 294 294 295 291 284 277 269 271 269 267 264 262 257 254 252 251 249 246 245 244 245 246 245 245 245 243 241 242 243 244 239 239 241 244 243 237 234 227 229 229 229 227 225 232
314 319 296 274 282 290 288 278 291 311 335 343 13 16 351 349 340 340 348 359 349 355 356 358 358 347 343 330 328 323 325 320 318 316 314 310 308 309 305 301 305 303 298 292 293 293 291 282 279 274 273 275 272 269 263 260 258 255 252 249 245 246 247 246 246 245 243 243 242 243 243 240 237 237 236 240 236 243 238 246 240 237 238 234 239
285 270 269 246 252 254 264 296 326 6 10 0 16 29 33 22 15 355 348 356 343 6 5 2 355 357 339 328 323 326 322 324 323 324 323 321 318 312 310 308 306 301 295 292 292 297 301 298 290 283 283 276 273 271 266 262 261 261 253 254 251 248 246 248 249 248 245 244 243 242 242 241 237 240 238 238 234 227 227 237 239 232 240 234 239
239 243 242 236 238 262 323 324 347 26 28 35 33 29 16 8 352 349 356 348 8 11 12 3 0 346 336 333 329 324 328 325 329 329 323 318 317 317 317 316 313 307 302 300 306 303 295 293 298 296 290 288 283 280 273 270 265 263 263 260 259 254 251 251 252 252 250 245 245 246 245 242 240 238 236 235 236 234 231 233 243 227 229 232 235
237 242 239 239 334 14 318 4 4 24 61 56 44 11 345 349 344 339 344 339 15 9 10 16 357 339 332 335 339 337 333 332 325 320 318 321 321 319 317 313 312 312 311 312 312 305 299 295 294 296 299 293 290 291 294 288 283 273 267 268 263 259 253 252 251 249 249 247 245 245 248 244 237 237 238 238 239 237 235 237 244 247 244 237 240
236 235 255 332 36 44 73 117 109 68 70 91 69 331 340 337 318 348 334 339 8 17 19 2 351 341 343 345 342 336 336 331 330 325 321 317 314 315 315 314 314 317 315 315 307 295 296 294 294 294 293 294 295 296 295 297 303 307 303 292 285 281 276 260 252 249 250 250 249 248 244 240 238 238 241 241 238 240 245 250 248 243 240 234 226
229 278 349 241 140 149 145 101 70 59 80 168 184 121 317 288 342 314 342 10 9 19 15 1 348 346 345 345 342 341 333 330 330 326 321 320 317 313 315 320 318 311 310 311 304 305 298 295 291 290 287 284 286 293 299 302 306 308 309 309 291 284 280 278 275 269 262 261 264 266 268 257 253 243 239 245 246 242 235 237 242 245 247 250 254
110 145 149 144 136 116 125 108 106 241 218 242 210 191 305 315 315 335 7 348 21 4 25 358 346 346 344 341 340 338 333 328 327 326 326 323 321 318 312 303 302 309 308 305 303 299 297 295 290 289 288 289 283 277 283 289 293 297 301 303 292 289 281 275 275 275 277 275 268 262 262 261 251 243 239 238 242 246 250 245 246 246 246 244 240
151 141 155 153 147 146 149 200 239 237 284 352 350 327 340 9 15 15 353 12 7 19 12 359 350 339 345 346 345 341 332 328 327 325 323 319 316 315 316 315 314 310 310 308 308 308 301 295 293 289 289 290 284 283 282 283 286 291 294 291 285 283 281 277 276 273 272 271 270 266 258 257 259 249 249 244 238 242 249 255 254 249 245 245 241
174 155 165 161 171 170 170 176 208 63 282 282 313 326 32 9 19 66 32 31 32 22 7 355 346 339 341 338 338 332 328 327 327 327 326 323 322 319 317 319 316 309 295 289 289 278 290 297 293 294 293 289 288 284 287 292 294 296 296 292 286 283 279 277 277 278 277 275 276 277 281 279 275 268 249 229 228 239 245 248 249 252 255 254 253
158 150 153 166 165 159 176 156 140 180 106 2 325 356 34 24 33 20 26 21 29 21 5 354 338 334 328 325 324 319 319 319 321 323 321 320 322 322 320 318 314 309 310 309 302 296 290 291 293 292 291 290 293 295 296 298 301 298 298 288 287 284 281 281 277 275 274 278 280 282 280 280 279 276 275 271 262 254 255 254 253 255 256 254 255
139 136 120 117 131 111 131 107 55 19 356 358 13 49 63 45 28 11 15 8 18 5 351 344 334 329 322 316 311 308 307 309 310 311 310 307 307 299 297 309 309 310 310 305 306 303 292 281 287 289 287 293 294 297 296 296 295 292 288 288 285 284 281 280 284 278 276 274 273 276 277 282 284 285 298 289 263 234 242 253 258 259 262 259 258
151 156 163 184 185 136 102 65 57 21 322 323 306 87 68 54 32 0 6 13 6 349 346 338 328 320 317 310 303 299 297 299 300 297 296 299 301 302 302 303 293 290 286 293 298 297 296 284 266 273 279 279 284 288 287 287 288 291 291 286 284 284 286 285 286 286 278 275 281 275 269 268 271 280 281 279 276 260 250 252 250 255 260 261 258
167 178 163 166 165 106 97 60 261 273 289 297 112 79 60 42 5 9 13 7 345 333 316 313 314 316 314 313 307 303 297 295 298 293 287 283 287 296 298 300 298 290 294 297 294 291 294 295 285 276 274 268 277 280 278 277 280 283 283 282 280 282 283 286 285 287 294 284 275 275 266 261 265 267 267 267 266 261 255 260 256 251 255 260 272
145 154 154 134 155 150 161 176 193 212 204 199 114 69 34 0 351 7 341 317 309 311 317 313 318 319 319 317 312 308 307 301 288 289 287 286 286 287 295 299 300 303 298 298 298 298 297 295 293 276 273 270 263 273 276 275 278 279 279 280 278 273 277 283 286 286 283 290 291 279 277 260 260 262 263 266 266 262 256 253 253 252 254 270 281
108 140 141 142 150 152 133 107 125 107 133 132 114 75 53 10 5 330 299 288 310 316 314 316 318 317 315 316 315 311 303 301 302 301 301 293 280 275 279 289 295 299 303 300 301 300 299 298 300 289 274 274 269 262 273 277 279 280 278 276 276 270 270 285 287 285 286 287 287 293 293 284 278 274 273 269 267 264 261 257 255 255 260 262 261
105 62 23 104 80 55 42 24 350 7 14 43 51 30 12 10 344 307 298 312 318 322 321 319 318 313 312 311 312 315 317 316 311 308 305 304 302 297 291 286 291 297 297 299 302 304 305 305 304 297 279 281 280 278 273 277 282 285 284 282 276 276 280 281 286 292 293 291 295 294 296 297 293 292 290 285 281 277 275 267 266 263 259 258 256
87 87 34 58 60 46 27 359 354 353 1 7 33 7 351 354 315 318 336 329 331 319 317 316 314 310 308 309 310 314 314 315 315 316 313 307 309 307 301 297 294 296 302 302 299 298 299 301 306 308 302 284 287 283 285 282 283 284 285 286 287 286 286 281 279 282 287 286 294 292 289 289 291 292 289 287 283 278 273 273 272 270 267 263 257
57 55 56 68 77 55 29 357 340 342 343 351 8 19 345 335 315 346 337 332 326 324 319 315 309 305 305 306 311 313 317 315 315 317 315 316 314 318 315 317 315 307 302 297 296 299 297 300 301 300 304 305 290 287 289 291 288 289 288 289 292 293 293 292 291 283 278 282 280 285 290 292 291 290 288 287 283 276 273 272 270 267 266 263 257
49 30 26 87 82 68 47 15 336 342 350 350 352 26 1 320 328 335 331 328 326 325 323 318 314 313 312 312 316 314 312 315 315 313 305 300 302 307 306 305 306 298 296 294 296 301 299 298 295 296 299 302 304 290 286 283 283 289 295 297 294 293 291 287 281 282 282 283 284 284 284 285 286 285 287 286 282 276 269 270 272 271 263 252 231
26 351 7 15 16 14 7 10 346 343 6 358 4 4 351 334 337 328 327 326 326 320 314 315 315 316 317 321 323 325 324 325 321 316 309 305 304 299 296 296 296 296 293 290 290 294 296 295 294 298 301 303 303 297 283 284 287 293 298 296 295 290 284 283 284 283 284 282 280 278 278 277 277 279 279 278 279 281 280 274 268 259 252 244 235
18 0 11 358 3 356 345 5 6 1 17 11 5 349 341 336 330 326 323 326 324 320 318 319 320 318 319 321 319 322 323 317 319 317 311 307 299 295 295 293 300 299 300 298 299 297 300 303 302 303 306 304 302 302 294 297 313 317 312 307 301 300 300 299 296 294 291 289 288 286 281 274 273 274 272 268 264 266 266 273 268 264 257 251 248
12 348 7 358 347 352 350 5 357 8 10 359 348 334 333 328 323 325 327 335 330 333 328 325 324 326 321 322 318 314 313 312 310 310 297 291 299 299 290 285 262 257 263 278 296 290 292 292 290 295 304 300 297 301 304 316 307 303 303 309 312 310 308 300 293 295 297 292 285 284 277 278 268 272 274 266 263 256 256 253 261 262 258 251 243
337 342 353 6 16 26 7 353 339 348 351 344 338 332 327 323 325 341 3 7 352 339 335 326 325 322 317 317 314 311 309 307 308 309 311 303 275 273 281 280 290 269 263 267 262 278 287 296 295 285 273 284 295 300 305 303 301 300 297 293 292 293 295 296 298 298 294 294 289 285 279 278 279 274 275 271 264 252 255 253 241 243 246 246 237
359 22 12 26 10 6 357 344 336 338 338 335 331 328 325 329 355 11 16 1 353 340 327 322 322 319 317 313 310 309 309 305 304 308 311 310 311 292 264 279 277 278 279 274 276 276 282 283 280 292 289 273 280 289 295 297 297 297 298 298 297 294 295 297 299 303 294 286 292 286 283 277 274 272 270 271 265 261 254 252 248 233 229 232 238